TimeCST,TemperatureF,Dew PointF,Humidity,Sea Level PressureIn,VisibilityMPH,Wind Direction,Wind SpeedMPH,Gust SpeedMPH,PrecipitationIn,Events,Conditions,WindDirDegrees,DateUTC
12:53 AM,25.0,8.1,49,30.06,10.0,SW,4.6,-,N/A,,Clear,230,2014-02-21 06:53:00
1:53 AM,23.0,10.0,58,30.06,10.0,SW,11.5,-,N/A,,Clear,230,2014-02-21 07:53:00
2:53 AM,19.9,9.0,62,30.03,10.0,SSW,8.1,-,N/A,,Clear,210,2014-02-21 08:53:00
3:53 AM,24.1,10.0,55,29.99,10.0,SW,3.5,-,N/A,,Clear,230,2014-02-21 09:53:00
4:53 AM,26.1,10.0,51,29.96,10.0,SW,3.5,-,N/A,,Clear,220,2014-02-21 10:53:00
5:53 AM,18.0,8.1,65,29.98,10.0,SW,8.1,-,N/A,,Clear,220,2014-02-21 11:53:00
6:53 AM,21.9,7.0,53,29.97,10.0,West,6.9,-,N/A,,Clear,280,2014-02-21 12:53:00
7:53 AM,26.1,6.1,43,29.97,10.0,North,5.8,-,N/A,,Clear,350,2014-02-21 13:53:00
8:53 AM,34.0,6.1,31,29.99,10.0,NW,8.1,-,N/A,,Clear,310,2014-02-21 14:53:00
9:53 AM,46.0,7.0,20,29.96,10.0,West,11.5,-,N/A,,Clear,270,2014-02-21 15:53:00
10:53 AM,54.0,-0.0,11,29.96,10.0,North,9.2,-,N/A,,Clear,360,2014-02-21 16:53:00
11:53 AM,59.0,1.0,10,29.94,10.0,NNW,16.1,21.9,N/A,,Clear,340,2014-02-21 17:53:00
12:53 PM,59.0,3.0,11,29.93,10.0,NNW,11.5,23.0,N/A,,Clear,340,2014-02-21 18:53:00
1:53 PM,61.0,5.0,11,29.91,10.0,North,16.1,-,N/A,,Clear,10,2014-02-21 19:53:00
2:53 PM,60.1,3.0,10,29.91,10.0,NNE,6.9,17.3,N/A,,Clear,30,2014-02-21 20:53:00
3:53 PM,61.0,-0.0,9,29.87,10.0,NE,9.2,-,N/A,,Clear,40,2014-02-21 21:53:00
4:53 PM,59.0,-0.9,9,29.86,10.0,ESE,6.9,-,N/A,,Clear,110,2014-02-21 22:53:00
5:53 PM,57.0,-0.0,10,29.88,10.0,ESE,9.2,-,N/A,,Clear,120,2014-02-21 23:53:00
6:53 PM,46.9,1.0,15,29.90,10.0,ESE,10.4,-,N/A,,Clear,120,2014-02-22 00:53:00
7:53 PM,42.1,3.0,20,29.91,10.0,East,9.2,-,N/A,,Clear,100,2014-02-22 01:53:00
8:53 PM,39.9,6.1,25,29.91,10.0,East,10.4,-,N/A,,Clear,100,2014-02-22 02:53:00
9:53 PM,39.0,6.1,26,29.89,10.0,ESE,10.4,-,N/A,,Clear,110,2014-02-22 03:53:00
10:53 PM,36.0,6.1,29,29.88,10.0,South,9.2,-,N/A,,Clear,170,2014-02-22 04:53:00
11:53 PM,37.9,6.1,27,29.85,10.0,Calm,Calm,-,N/A,,Clear,0,2014-02-22 05:53:00